GFSSW_500_spd_336.txt.gz
Wind_Speed
15 16 16 15 15 15 14 14 12 12 11 9 9 7 7 7 7 5 4 3 3 4 4 6 5 6 7 12 23 28 25 13 14 20 19 20 22 20 18 17 22 22 9 2 1
18 19 20 20 19 18 18 17 15 13 13 12 12 12 11 10 8 8 7 6 4 1 1 4 6 5 11 34 26 27 22 21 21 23 18 21 21 17 21 21 21 25 25 13 8
19 20 21 21 19 19 19 19 18 16 14 14 14 13 13 11 12 8 10 8 7 5 4 4 2 11 13 25 16 21 15 20 19 19 19 19 15 15 24 23 21 19 22 24 11
21 22 22 22 20 18 17 17 19 18 16 16 14 14 15 15 17 14 11 10 8 9 9 7 3 31 33 25 19 21 19 18 19 18 21 24 22 28 30 24 18 18 16 19 22
23 22 20 19 18 15 13 13 14 17 18 16 15 15 15 16 15 13 12 12 9 9 9 11 4 3 10 13 5 10 18 18 15 16 18 17 20 23 25 25 25 17 16 14 18
21 18 16 14 13 13 13 13 12 14 17 17 16 15 15 18 7 12 13 13 12 12 10 9 7 3 2 11 8 12 16 13 16 16 14 21 15 20 22 23 26 24 15 15 12
16 13 13 13 12 12 11 10 9 11 13 16 16 15 14 17 9 10 12 13 15 15 11 9 9 4 2 9 10 3 5 5 23 21 18 15 10 19 22 19 22 24 19 15 15
11 11 12 10 12 12 11 10 5 4 8 13 15 15 15 7 9 12 12 12 16 16 14 12 8 5 4 7 9 11 15 5 18 25 21 19 6 23 21 15 17 20 20 17 14
9 10 9 10 11 11 12 12 8 3 3 7 12 13 10 10 10 10 11 11 12 15 16 15 10 5 6 9 14 10 9 13 10 21 20 21 21 24 20 16 16 18 19 18 17
7 8 8 9 10 12 11 12 11 9 5 3 8 11 10 9 8 9 10 8 7 9 13 15 13 10 11 10 31 6 15 20 7 8 10 12 19 19 18 16 14 20 21 18 17
6 6 6 8 9 11 11 11 11 10 8 4 4 7 7 8 7 7 8 7 7 12 12 9 8 10 7 13 13 18 9 6 18 16 6 8 8 22 10 14 8 16 18 17 17
5 5 5 7 9 10 12 10 11 10 7 7 4 2 3 6 6 6 6 5 6 8 10 4 7 12 13 12 19 15 12 12 19 13 3 6 8 15 12 7 15 18 19 17 16
5 6 5 5 6 9 13 10 12 13 9 10 7 5 2 1 3 3 3 4 6 2 3 7 11 14 15 19 15 10 10 11 24 18 9 6 19 22 9 9 5 12 15 16 15
5 6 5 4 6 8 9 13 14 14 19 11 7 8 5 3 4 1 4 5 3 3 5 11 11 15 16 10 10 10 9 14 12 14 8 7 19 29 26 13 20 8 12 14 13
5 5 4 4 5 7 11 14 17 15 9 9 9 5 6 6 3 4 2 4 5 6 9 2 9 8 8 6 19 12 17 19 12 11 10 9 14 24 25 16 9 13 10 14 14
4 4 4 5 6 8 9 15 16 18 8 12 6 4 8 7 5 4 4 6 10 11 6 6 10 8 10 12 8 8 8 9 14 10 10 12 13 27 21 11 4 7 16 18 18
5 5 5 5 7 7 8 10 16 12 6 9 7 8 8 2 5 3 3 7 7 12 12 15 13 13 4 3 8 6 9 10 14 11 7 10 8 11 20 5 8 20 27 25 20
3 4 5 6 6 6 7 8 18 1 2 6 2 2 6 4 7 0 8 12 11 3 3 7 9 6 7 4 13 7 3 2 10 8 12 15 7 18 8 17 20 26 28 25 24
3 4 4 4 4 4 3 9 3 2 7 3 6 4 6 14 8 4 1 7 13 11 9 3 6 14 13 6 4 7 4 15 8 9 9 7 10 4 14 16 20 26 26 26 22
3 3 4 4 4 3 4 7 6 6 5 2 4 8 4 10 5 5 8 14 10 8 15 2 5 6 13 13 19 12 8 4 2 7 7 4 14 15 18 22 26 33 25 23 22
5 4 3 3 4 3 3 3 12 9 7 6 4 3 6 9 9 3 8 16 23 13 7 4 5 7 9 11 10 11 12 9 8 8 9 5 11 23 27 32 34 37 32 25 19
6 6 5 5 6 7 3 10 7 11 8 9 8 9 8 9 7 5 9 22 10 12 12 8 9 7 9 6 20 18 10 3 3 6 8 13 21 17 18 30 35 36 30 20 17
9 8 7 7 8 4 12 14 11 11 11 9 9 10 13 11 12 12 11 19 12 16 11 11 7 9 4 11 17 6 2 5 6 8 10 11 20 6 15 30 31 31 28 21 22
13 12 10 9 9 9 14 15 14 11 13 14 13 14 12 13 13 12 14 17 7 16 12 14 12 12 9 13 14 15 15 16 12 9 9 10 17 21 24 12 32 22 22 22 24
20 18 16 15 15 12 16 18 17 16 16 16 16 16 16 15 13 13 14 15 17 12 10 13 14 16 18 18 21 28 25 19 17 16 18 16 24 18 14 24 37 35 30 28 25
25 24 21 21 20 20 20 19 21 20 21 19 20 18 21 19 19 21 23 20 19 19 17 15 16 17 17 18 19 22 20 18 17 18 19 19 20 29 36 31 39 30 23 27 25
28 29 28 26 25 26 25 26 25 26 24 22 22 21 21 26 20 19 21 19 20 21 19 18 18 18 17 19 19 19 13 13 17 15 18 18 18 17 20 30 33 33 26 26 30

GFSSW_500_spd_339.txt.gz
Wind_Speed
15 15 17 17 18 18 17 17 15 14 13 13 11 10 7 4 2 3 2 2 2 3 3 7 1 24 28 22 20 30 21 32 27 18 22 25 23 22 19 17 20 12 5 3 1
18 18 18 19 19 18 18 18 18 17 15 14 14 12 11 8 6 4 5 5 4 2 7 10 13 27 28 31 32 36 31 24 24 27 28 22 11 14 23 23 21 23 15 11 10
22 22 22 21 20 18 17 17 18 18 17 15 14 14 13 12 10 8 8 9 8 3 8 7 18 16 23 21 27 31 23 18 25 26 27 28 27 27 28 25 22 21 22 21 19
24 24 22 20 18 16 16 16 17 17 19 17 15 16 15 14 11 11 9 10 9 5 6 3 8 12 22 19 23 22 21 17 20 24 26 28 31 27 30 27 21 22 21 24 23
24 22 20 16 13 12 11 11 12 14 17 19 17 16 16 15 11 13 13 11 11 8 6 4 9 15 18 23 14 4 5 14 22 21 26 21 23 22 26 29 23 20 21 22 24
21 17 14 13 12 12 12 12 11 13 14 17 17 15 14 13 8 14 14 13 13 12 10 9 3 6 6 5 9 19 28 16 15 21 21 16 21 23 22 26 26 20 20 19 19
15 12 12 11 12 12 11 10 9 9 12 14 16 14 12 12 5 8 11 13 13 12 10 2 5 5 5 5 4 9 20 7 11 16 19 22 18 23 20 24 26 24 20 18 16
12 11 10 10 12 12 13 13 8 3 6 10 12 12 10 4 10 10 12 12 13 13 11 6 5 7 5 7 6 14 24 18 9 20 27 15 11 19 21 24 26 25 22 20 19
9 8 8 9 12 12 12 14 11 6 2 3 7 8 6 9 7 7 8 11 12 12 12 11 5 7 1 6 14 17 11 16 17 18 18 12 5 12 13 20 26 25 20 21 20
6 6 8 9 11 11 12 13 13 12 9 4 3 6 8 5 6 6 6 7 8 11 12 11 5 12 5 20 21 18 13 20 18 16 18 16 18 14 7 11 18 22 21 20 20
6 6 7 8 9 11 12 12 12 12 12 8 4 3 2 6 5 4 4 4 7 9 11 12 11 15 11 8 10 21 19 19 26 24 15 9 17 18 13 13 14 15 18 18 20
7 7 6 7 8 9 11 13 10 15 10 11 9 6 4 2 3 3 2 3 5 7 8 9 7 12 16 12 13 18 6 8 15 16 4 10 19 22 24 21 16 13 15 19 17
7 7 6 5 6 7 12 10 9 18 8 16 9 8 6 4 4 4 3 3 3 9 10 5 5 3 15 19 19 12 8 4 11 11 7 12 16 11 26 18 22 6 10 12 16
7 7 6 4 4 10 7 10 11 16 20 17 9 6 11 6 8 7 3 3 7 8 4 1 8 10 19 8 6 6 11 14 10 14 12 4 19 18 19 17 25 16 9 9 11
5 6 6 5 7 7 7 12 18 18 20 18 15 11 8 5 12 8 4 2 2 3 10 8 9 10 11 6 10 10 6 13 13 5 8 3 13 24 25 15 13 10 10 15 20
5 6 6 6 8 7 12 16 16 18 18 20 12 5 8 12 15 10 9 10 15 19 16 19 18 17 20 7 4 7 11 13 16 14 15 12 14 23 12 12 10 9 18 26 24
6 7 7 7 7 8 8 10 17 22 14 12 17 18 20 19 14 12 14 20 9 16 19 23 14 12 21 3 6 2 8 8 8 7 11 11 16 14 13 13 5 5 17 21 28
3 4 5 5 6 6 8 9 23 14 9 7 15 11 5 16 15 17 17 20 10 10 4 16 8 11 23 22 9 10 6 7 5 6 13 13 19 6 15 4 3 11 14 17 27
2 2 3 2 4 3 2 5 11 6 11 8 3 13 13 14 12 12 9 3 9 14 5 10 7 9 6 9 8 7 15 4 6 3 7 15 7 6 19 8 11 20 12 23 27
3 2 2 2 3 3 2 2 6 3 5 3 11 3 2 12 10 8 10 11 17 18 15 11 11 5 10 14 12 9 7 6 7 6 5 11 8 9 9 18 24 26 28 27 25
6 4 3 3 1 1 4 2 4 12 4 6 8 9 14 11 11 4 5 17 20 15 8 18 16 15 7 7 14 9 17 17 12 5 3 9 19 19 23 23 31 27 27 28 23
9 6 6 4 3 3 9 7 11 12 10 7 6 9 15 17 17 16 13 19 25 27 14 11 13 12 15 8 12 18 22 1 5 14 11 8 13 15 22 24 33 33 24 24 18
12 11 8 6 5 7 5 4 19 10 13 9 7 10 12 10 10 11 19 21 19 16 15 9 8 1 10 9 10 2 7 9 12 17 14 7 14 17 25 33 30 11 10 14 18
18 19 14 10 11 9 10 14 12 14 9 15 11 14 12 12 11 11 12 25 18 12 13 11 11 11 13 18 19 16 16 17 16 14 16 14 10 16 20 32 22 24 15 15 28
22 23 16 18 17 13 12 11 13 15 19 17 13 14 16 16 15 13 14 13 20 10 7 10 12 14 15 17 18 23 25 25 25 20 17 19 22 22 22 27 33 33 34 24 25
25 26 24 23 24 21 20 17 19 18 20 23 22 17 17 18 20 17 20 23 23 18 15 13 14 16 17 19 20 19 19 19 17 16 18 18 19 30 33 30 31 41 45 33 29
28 30 30 28 29 28 25 28 27 28 24 26 24 25 22 21 21 17 20 22 20 19 18 19 18 17 13 16 17 15 15 19 18 20 17 20 21 22 22 30 39 41 39 34 35

GFSSW_500_spd_342.txt.gz
Wind_Speed
16 16 17 18 19 19 18 17 16 15 12 12 12 10 9 8 7 6 5 4 5 10 15 19 19 26 28 37 22 35 35 35 32 32 31 23 19 19 16 18 11 6 3 6 8
20 20 21 21 20 19 19 18 18 17 15 13 13 12 11 11 10 9 9 6 2 7 11 12 20 16 23 23 29 24 23 26 27 24 26 23 21 18 19 18 17 14 4 0 6
22 22 22 20 19 17 17 17 17 17 17 15 14 13 13 13 14 15 10 7 3 3 4 8 15 15 12 16 16 13 14 18 17 17 22 22 26 24 21 20 16 17 13 13 8
23 23 21 17 14 13 12 13 14 16 16 17 15 14 13 15 14 16 12 9 4 3 3 4 9 9 17 11 16 20 15 16 15 22 23 23 29 31 27 22 19 19 19 14 16
21 19 15 14 14 13 12 13 12 13 13 15 15 13 12 12 13 13 12 10 8 7 7 3 8 8 10 15 18 20 23 5 21 17 20 20 24 30 27 22 20 21 19 22 21
18 15 14 13 13 13 12 11 12 13 13 12 13 12 10 11 11 10 14 11 11 10 5 3 6 5 9 20 26 24 30 11 15 17 15 23 18 23 24 23 22 23 22 20 25
14 12 12 12 13 13 14 12 9 8 9 10 9 11 11 9 5 7 13 11 13 9 3 3 3 3 14 14 20 32 26 30 19 20 18 28 24 25 28 25 23 24 24 20 18
11 10 10 11 13 14 14 14 10 5 1 5 7 11 9 8 10 12 11 12 13 13 10 7 3 6 4 6 21 21 26 26 21 23 15 10 21 17 19 25 23 24 23 21 20
9 8 9 11 13 13 13 15 15 11 6 6 8 11 10 11 8 6 5 9 12 13 11 14 15 7 4 5 18 15 16 16 20 28 17 7 10 19 16 22 23 25 23 24 20
8 7 8 10 12 12 12 15 15 13 10 9 8 6 8 8 7 7 6 8 7 9 8 12 16 10 7 7 12 10 14 15 20 21 18 9 13 9 18 18 20 21 24 22 20
8 7 7 8 10 10 12 14 14 12 12 12 13 6 7 7 6 5 5 5 6 6 7 7 16 12 6 3 6 11 10 9 12 11 16 15 22 23 30 16 12 17 18 22 22
9 8 7 6 6 9 9 13 12 14 11 11 14 8 8 8 9 6 8 7 6 7 6 11 18 14 1 6 10 11 3 5 3 5 9 11 15 15 8 8 11 9 14 17 14
8 8 7 5 5 8 9 10 13 15 11 13 16 11 6 7 8 4 7 8 7 6 9 12 16 8 6 9 10 8 11 9 9 7 9 10 11 11 9 20 11 4 9 13 13
6 7 7 5 4 7 6 8 13 15 18 17 15 11 11 6 7 4 5 7 4 4 6 3 7 4 6 8 12 6 7 2 5 12 17 14 16 10 14 12 8 11 13 17 15
4 6 6 4 5 7 8 10 10 13 23 20 18 19 14 12 15 16 15 14 16 21 19 15 13 11 13 5 5 9 12 9 6 7 7 9 10 10 14 19 21 12 7 12 19
5 6 5 4 7 8 11 15 15 17 21 23 18 17 21 19 25 23 18 22 19 16 15 12 8 11 19 14 3 17 11 8 2 6 2 3 9 13 13 15 16 2 7 12 19
5 6 5 5 5 6 10 15 14 18 20 24 23 24 22 20 17 14 17 15 10 10 11 11 7 15 16 13 9 15 12 9 10 10 8 11 6 12 12 15 6 14 18 17 19
2 3 3 4 4 9 6 6 4 13 7 8 9 13 17 16 18 13 8 9 6 9 12 6 12 13 12 18 11 10 7 5 4 8 11 8 9 12 7 7 2 8 9 14 23
1 1 2 2 3 3 1 1 5 12 7 4 4 4 8 10 9 9 7 7 12 11 6 4 5 5 4 9 8 5 8 8 5 4 4 7 2 2 6 2 7 12 11 14 26
4 3 2 4 4 4 3 2 4 5 4 7 10 5 6 2 3 6 10 6 11 13 12 16 10 7 5 5 5 2 5 5 4 4 7 6 8 11 15 10 13 18 18 21 23
7 7 7 5 5 6 6 6 7 9 5 4 12 12 11 7 9 9 9 12 14 16 11 7 20 12 13 5 3 7 13 12 7 9 1 5 9 11 12 15 17 22 24 25 20
11 9 9 7 10 10 10 9 11 2 4 2 11 18 21 19 17 18 19 21 16 18 11 9 16 16 17 12 10 10 10 11 9 14 11 8 8 8 9 15 19 24 25 20 18
16 15 13 12 16 13 12 11 11 4 9 8 7 8 9 14 17 18 22 24 26 21 19 11 8 8 15 24 22 19 16 14 11 22 19 17 12 15 15 20 30 31 25 22 25
19 18 15 14 14 14 12 11 10 8 11 13 10 12 11 12 15 16 22 21 18 13 8 9 9 9 13 19 23 23 21 18 10 9 19 23 28 25 23 23 32 35 28 26 29
23 21 20 20 20 16 14 12 12 15 16 17 14 15 14 11 14 18 19 18 19 15 5 8 11 12 14 17 20 20 21 20 22 24 19 17 28 31 32 30 33 37 37 33 29
26 27 26 26 26 24 23 22 22 20 23 22 22 20 15 16 12 13 15 19 21 18 13 11 12 15 18 18 20 20 18 19 22 21 21 19 24 34 33 34 37 41 41 37 36
29 30 30 29 30 29 30 29 27 28 25 25 24 23 25 20 18 16 14 17 22 20 18 16 16 16 15 18 18 15 18 21 22 22 21 19 20 20 21 23 25 30 34 33 32

GFSSW_500_spd_345.txt.gz
Wind_Speed
19 19 19 20 20 20 19 18 18 16 15 15 14 13 11 9 7 4 3 1 6 10 18 24 19 25 15 21 24 26 27 27 26 29 25 18 12 12 14 13 7 2 6 10 14
22 21 21 21 20 20 19 18 17 17 16 15 15 14 12 12 10 6 2 3 1 8 12 20 12 10 7 12 11 18 16 20 23 27 27 21 15 12 12 13 12 4 2 8 15
23 22 22 20 17 15 14 14 16 16 16 16 15 14 13 14 11 6 5 5 3 4 8 11 10 15 12 9 8 18 3 15 19 24 25 23 19 15 14 14 15 13 2 5 6
23 21 20 16 15 14 13 13 12 13 15 15 16 15 14 14 10 9 8 7 6 1 7 3 13 12 13 18 20 25 24 23 21 25 24 25 24 21 18 18 17 21 10 6 5
20 19 16 14 14 14 14 13 14 14 13 12 15 15 13 13 9 9 10 9 8 1 5 1 12 7 7 15 28 31 33 23 22 20 19 22 26 23 20 20 19 21 20 15 14
18 15 14 13 14 14 15 14 12 11 12 11 12 14 13 11 9 9 9 9 11 3 3 3 8 12 15 20 32 34 31 26 30 22 20 20 24 22 22 20 21 21 22 21 15
16 13 12 12 15 15 15 15 10 5 5 10 12 15 13 7 5 11 11 12 11 6 4 5 6 11 13 17 29 27 31 34 27 19 18 17 20 22 19 19 21 22 23 20 20
13 10 11 12 14 14 14 14 13 6 3 9 12 13 8 8 13 11 9 12 11 8 7 8 7 14 11 13 20 20 25 23 19 16 20 12 21 23 20 19 21 23 22 24 17
11 9 9 11 13 13 12 13 14 11 5 8 11 12 12 11 9 4 5 9 8 8 9 11 8 11 8 8 14 17 17 16 16 16 20 25 16 19 16 20 19 20 22 23 20
10 9 9 9 11 11 9 11 14 12 9 8 9 10 11 12 7 6 5 5 6 5 10 9 9 11 7 2 3 16 16 9 13 9 11 16 19 14 15 17 19 21 19 21 21
10 9 8 8 9 10 11 12 13 12 11 11 9 8 9 7 8 7 6 7 8 9 12 12 13 9 3 1 1 9 6 6 8 10 11 10 10 17 15 11 12 13 19 21 20
8 8 7 6 6 8 8 14 11 12 12 9 7 7 8 6 5 5 6 7 6 6 14 20 19 15 15 5 5 4 4 2 1 5 6 6 5 10 13 9 4 7 13 16 17
7 6 5 5 4 7 10 11 14 13 12 14 12 9 5 4 5 6 4 5 6 5 12 24 21 20 19 13 12 7 8 7 8 5 5 7 7 7 17 12 5 3 9 13 12
5 4 3 3 2 7 9 12 20 18 23 21 15 14 12 8 8 5 7 11 9 10 9 8 16 14 17 11 6 3 14 16 13 7 8 8 2 7 8 9 8 11 9 9 11
2 2 3 4 6 7 9 12 15 17 28 25 24 17 13 16 16 14 21 27 21 16 10 6 8 6 5 2 2 4 10 2 5 3 4 12 7 4 9 8 9 9 16 13 8
1 2 3 3 7 9 11 15 17 24 25 26 26 25 17 17 22 28 22 19 17 13 7 5 11 12 13 8 7 11 10 8 4 5 2 3 3 8 10 5 10 20 7 4 12
2 3 3 3 7 4 6 10 14 17 18 16 16 17 19 14 19 21 17 16 13 10 11 12 11 15 14 14 6 19 13 10 9 6 6 1 1 4 3 6 20 9 8 11 8
2 2 3 2 5 7 4 1 2 12 14 12 9 5 11 15 12 10 9 12 9 7 8 2 4 8 6 7 7 8 18 10 4 4 4 4 5 2 3 3 8 5 13 13 14
5 4 5 5 8 7 4 3 5 9 8 7 0 3 7 10 9 4 0 2 7 6 3 6 3 3 2 1 2 5 6 11 5 6 4 6 7 4 4 4 3 6 12 15 20
8 7 7 9 9 9 8 6 9 11 9 9 10 7 2 7 3 3 5 6 2 4 8 9 12 6 9 6 4 3 4 10 10 6 5 8 8 6 4 5 2 7 11 16 21
12 10 9 9 10 10 10 7 5 12 10 8 12 13 11 10 10 9 9 11 11 13 11 7 6 15 15 13 12 13 12 9 13 15 8 8 4 1 3 2 6 11 17 17 15
16 14 12 13 13 13 11 9 8 9 13 8 9 12 16 17 15 14 14 16 21 23 20 11 10 13 21 19 17 17 18 14 8 14 15 10 7 4 8 10 17 22 25 22 19
19 18 16 16 17 14 13 14 10 11 14 10 11 14 13 18 21 20 21 19 21 19 15 11 7 11 12 22 26 24 24 20 17 14 19 16 15 15 18 21 23 27 31 27 23
22 21 20 20 18 17 16 16 13 10 14 10 8 10 10 13 16 21 21 21 20 17 12 10 9 12 13 16 18 24 26 22 20 16 21 19 17 20 25 29 33 34 32 25 24
24 25 25 24 23 23 22 20 18 17 17 15 13 9 10 10 13 14 15 17 20 17 12 10 12 12 12 16 18 19 22 25 23 22 19 19 22 26 31 32 33 32 34 34 34
26 27 29 28 28 28 27 25 23 24 22 22 19 16 13 11 15 16 15 13 16 16 13 12 13 18 16 17 20 23 23 25 31 30 20 18 20 19 22 29 33 32 30 23 22
30 31 31 32 32 32 31 30 29 27 29 25 23 23 21 19 17 17 19 17 16 17 17 16 16 17 17 19 21 19 24 26 24 24 21 20 20 18 18 15 15 19 20 22 22